TimeCDT,TemperatureF,Dew PointF,Humidity,Sea Level PressureIn,VisibilityMPH,Wind Direction,Wind SpeedMPH,Gust SpeedMPH,PrecipitationIn,Events,Conditions,WindDirDegrees,DateUTC
12:56 AM,39.9,19.0,43,29.94,10.0,South,6.9,-,N/A,,Overcast,180,2012-10-08 05:56:00
1:56 AM,39.0,19.0,45,29.93,10.0,South,9.2,-,N/A,,Clear,180,2012-10-08 06:56:00
2:56 AM,37.9,19.9,48,29.91,10.0,South,8.1,-,N/A,,Clear,180,2012-10-08 07:56:00
3:56 AM,37.9,19.9,48,29.88,10.0,South,8.1,-,N/A,,Clear,170,2012-10-08 08:56:00
4:56 AM,37.0,21.0,52,29.88,10.0,South,6.9,-,N/A,,Clear,170,2012-10-08 09:56:00
5:56 AM,36.0,21.0,55,29.87,10.0,South,6.9,-,N/A,,Clear,170,2012-10-08 10:56:00
6:56 AM,36.0,21.9,57,29.86,10.0,South,9.2,-,N/A,,Clear,170,2012-10-08 11:56:00
7:56 AM,37.9,23.0,55,29.86,10.0,South,10.4,-,N/A,,Clear,180,2012-10-08 12:56:00
8:56 AM,41.0,26.1,55,29.84,10.0,South,8.1,-,N/A,,Scattered Clouds,190,2012-10-08 13:56:00
9:56 AM,44.1,28.0,53,29.84,10.0,South,8.1,-,N/A,,Overcast,190,2012-10-08 14:56:00
10:56 AM,46.9,28.9,50,29.80,10.0,South,11.5,18.4,N/A,,Overcast,170,2012-10-08 15:56:00
11:56 AM,48.9,30.0,48,29.79,10.0,South,13.8,21.9,N/A,,Overcast,180,2012-10-08 16:56:00
12:56 PM,50.0,30.9,48,29.76,10.0,South,17.3,23.0,N/A,,Overcast,170,2012-10-08 17:56:00
1:56 PM,54.0,30.9,41,29.72,10.0,South,13.8,24.2,N/A,,Overcast,180,2012-10-08 18:56:00
3:56 PM,57.9,32.0,37,29.67,10.0,South,12.7,25.3,N/A,,Overcast,180,2012-10-08 20:56:00
4:56 PM,61.0,32.0,34,29.63,10.0,South,15.0,-,N/A,,Overcast,180,2012-10-08 21:56:00
5:56 PM,62.1,30.9,31,29.62,10.0,South,17.3,-,N/A,,Overcast,190,2012-10-08 22:56:00
6:56 PM,63.0,30.0,29,29.64,10.0,SSW,15.0,26.5,N/A,,Overcast,210,2012-10-08 23:56:00
7:56 PM,63.0,28.9,28,29.65,10.0,SSW,16.1,25.3,N/A,,Overcast,210,2012-10-09 00:56:00
9:56 PM,61.0,35.1,38,29.68,10.0,SW,10.4,19.6,0.00,,Overcast,220,2012-10-09 02:56:00
10:56 PM,57.9,39.0,49,29.70,10.0,West,10.4,-,0.00,,Overcast,270,2012-10-09 03:56:00
11:56 PM,54.0,36.0,51,29.73,10.0,WNW,13.8,-,N/A,,Overcast,290,2012-10-09 04:56:00